Weather History for Canby, MN

Change the Weather History Date:

Saturday, July 20, 2013

  Actual Average (KMML) Record (KMML)
Temperature  
Mean Temperature 70 °F -  
Max Temperature 79 °F 82 °F 96 °F (1977)
Min Temperature 60 °F 60 °F 48 °F (1970)
Cooling Degree Days 4    
Growing Degree Days 20 (Base 50)    
Moisture  
Dew Point 63 °F    
Average Humidity 77    
Maximum Humidity 94    
Minimum Humidity 59    
Precipitation  
Precipitation 0.00 in - - ()
Sea Level Pressure  
Sea Level Pressure 29.95 in    
Wind  
Wind Speed 5 mph (NNW)    
Max Wind Speed 13 mph    
Max Gust Speed 17 mph    
Visibility 10 miles    
Events      
Averages and records for this station are not official NWS values.
T = Trace of Precipitation, MM = Missing Value Source: NWS Daily Summary

Daily Weather History Graph

Daily Weather History Graph

Search for Another Location

Airport:

Trip Planner

Search our weather history database for the weather conditions in past years. The results will help you decide how hot, cold, wet, or windy it might be!

Date:

Astronomy

Jul. 20, 2013 Rise Set
Actual Time 5:58 AM CDT 9:03 PM CDT
Civil Twilight 5:23 AM CDT 9:38 PM CDT
Nautical Twilight 4:38 AM CDT 10:23 PM CDT
Astronomical Twilight 3:44 AM CDT 11:17 PM CDT
Moon 7:07 PM CDT (7/20) 3:40 AM CDT (7/20)
Length of Visible Light 16h 14m
Length of Day
15h 04m
Waxing Gibbous, 94% of the Moon is Illuminated
Jul 20
Waxing Gibbous
Jul 22
Full
Jul 29
Last Quarter
Aug 6
New
Aug 14
First Quarter

Hourly Weather History & Observations

Time (CDT) Temp. Dew Point Humidity Pressure Visibility Wind Dir Wind Speed Gust Speed Precip Events Conditions
12:14 AM 68.0 °F 61.7 °F 80% 29.94 in 10.0 mi SW 4.6 mph - N/A   Clear
12:34 AM 68.7 °F 61.3 °F 77% 29.95 in 10.0 mi West 9.2 mph - N/A   Clear
12:54 AM 67.6 °F 61.0 °F 79% 29.95 in 10.0 mi West 6.9 mph - N/A   Clear
1:14 AM 66.6 °F 61.3 °F 83% 29.95 in 10.0 mi WNW 3.5 mph - N/A   Clear
1:35 AM 66.2 °F 61.0 °F 83% 29.94 in 10.0 mi West 3.5 mph - N/A   Clear
1:54 AM 63.5 °F 60.4 °F 90% 29.94 in 10.0 mi West 4.6 mph - N/A   Clear
2:14 AM 63.7 °F 61.0 °F 91% 29.94 in 10.0 mi WNW 6.9 mph - N/A   Clear
2:35 AM 63.3 °F 60.8 °F 91% 29.94 in 10.0 mi WNW 5.8 mph - N/A   Clear
2:54 AM 62.6 °F 60.6 °F 93% 29.94 in 10.0 mi West 4.6 mph - N/A   Clear
3:14 AM 63.1 °F 60.8 °F 92% 29.94 in 10.0 mi WSW 5.8 mph - N/A   Clear
3:34 AM 62.6 °F 60.4 °F 93% 29.94 in 10.0 mi WNW 4.6 mph - N/A   Clear
3:54 AM 61.5 °F 59.9 °F 94% 29.94 in 10.0 mi SW 5.8 mph - N/A   Clear
4:14 AM 62.2 °F 60.3 °F 93% 29.93 in 10.0 mi West 3.5 mph - N/A   Clear
4:34 AM 61.2 °F 59.5 °F 94% 29.94 in 10.0 mi Calm Calm - N/A   Clear
4:55 AM 60.8 °F 59.2 °F 94% 29.94 in 10.0 mi Calm Calm - N/A   Clear
5:14 AM 62.1 °F 60.3 °F 94% 29.94 in 10.0 mi WSW 3.5 mph - N/A   Clear
5:34 AM 62.6 °F 60.1 °F 91% 29.94 in 10.0 mi WSW 5.8 mph - N/A   Clear
5:54 AM 62.8 °F 59.9 °F 90% 29.95 in 10.0 mi WSW 4.6 mph - N/A   Clear
6:14 AM 62.2 °F 59.4 °F 90% 29.96 in 10.0 mi Calm Calm - N/A   Clear
6:34 AM 62.6 °F 60.1 °F 91% 29.96 in 10.0 mi Calm Calm - N/A   Clear
6:54 AM 63.5 °F 59.9 °F 88% 29.97 in 10.0 mi WSW 5.8 mph - N/A   Clear
7:15 AM 64.8 °F 60.8 °F 87% 29.97 in 10.0 mi Calm Calm - N/A   Clear
7:34 AM 65.8 °F 61.5 °F 86% 29.97 in 10.0 mi South 3.5 mph - N/A   Clear
7:54 AM 67.1 °F 61.2 °F 81% 29.98 in 10.0 mi SW 3.5 mph - N/A   Clear
8:15 AM 68.0 °F 61.2 °F 79% 29.99 in 10.0 mi West 3.5 mph - N/A   Clear
8:34 AM 69.8 °F 62.1 °F 76% 29.98 in 10.0 mi West 3.5 mph - N/A   Clear
8:54 AM 71.1 °F 63.7 °F 77% 29.98 in 10.0 mi WNW 4.6 mph - N/A   Clear
9:15 AM 72.0 °F 63.0 °F 73% 29.97 in 10.0 mi NNW 6.9 mph - N/A   Clear
9:34 AM 71.6 °F 62.8 °F 74% 29.98 in 10.0 mi NNW 9.2 mph - N/A   Clear
9:54 AM 70.2 °F 61.0 °F 73% 29.98 in 10.0 mi NNW 12.7 mph 17.3 mph N/A   Clear
10:14 AM 69.8 °F 61.5 °F 75% 29.99 in 10.0 mi NNW 11.5 mph 17.3 mph N/A   Clear
10:34 AM 70.9 °F 62.6 °F 75% 29.99 in 10.0 mi North 11.5 mph - N/A   Clear
10:54 AM 71.2 °F 62.8 °F 75% 29.99 in 10.0 mi North 10.4 mph - N/A   Clear
11:15 AM 73.4 °F 62.8 °F 69% 29.99 in 10.0 mi North 5.8 mph - N/A   Clear
11:34 AM 73.9 °F 63.1 °F 69% 29.98 in 10.0 mi North 8.1 mph - N/A   Clear
11:54 AM 74.7 °F 63.0 °F 67% 29.97 in 10.0 mi NW 3.5 mph - N/A   Clear
12:15 PM 74.8 °F 62.6 °F 66% 29.96 in 10.0 mi North 6.9 mph - N/A   Clear
12:34 PM 74.3 °F 62.6 °F 67% 29.95 in 10.0 mi Calm Calm - N/A   Clear
12:54 PM 75.4 °F 63.3 °F 66% 29.95 in 10.0 mi ENE 3.5 mph - N/A   Clear
1:14 PM 76.3 °F 63.9 °F 65% 29.95 in 10.0 mi Calm Calm - N/A   Clear
1:34 PM 77.7 °F 62.8 °F 60% 29.94 in 10.0 mi NE 4.6 mph - N/A   Clear
1:54 PM 77.9 °F 63.3 °F 61% 29.95 in 10.0 mi North 4.6 mph - N/A   Clear
2:14 PM 77.5 °F 62.1 °F 59% 29.95 in 10.0 mi Calm Calm - N/A   Clear
2:35 PM 77.9 °F 63.1 °F 60% 29.95 in 10.0 mi Calm Calm - N/A   Clear
2:54 PM 77.9 °F 63.9 °F 62% 29.95 in 10.0 mi NNE 3.5 mph - N/A   Scattered Clouds
3:14 PM 77.4 °F 62.4 °F 60% 29.95 in 10.0 mi NE 5.8 mph - N/A   Scattered Clouds
3:34 PM 78.3 °F 64.2 °F 62% 29.95 in 10.0 mi East 5.8 mph - N/A   Clear
3:54 PM 76.8 °F 63.3 °F 63% 29.95 in 10.0 mi East 3.5 mph - N/A   Clear
4:14 PM 78.1 °F 64.4 °F 63% 29.95 in 10.0 mi East 4.6 mph - N/A   Scattered Clouds
4:35 PM 77.9 °F 64.6 °F 63% 29.95 in 10.0 mi East 5.8 mph - N/A   Clear
4:55 PM 77.9 °F 64.4 °F 63% 29.95 in 10.0 mi East 4.6 mph - N/A   Scattered Clouds
5:15 PM 77.9 °F 64.8 °F 64% 29.94 in 10.0 mi East 3.5 mph - N/A   Scattered Clouds
5:35 PM 79.0 °F 64.6 °F 61% 29.94 in 10.0 mi ENE 5.8 mph - N/A   Clear
5:54 PM 78.4 °F 64.2 °F 62% 29.93 in 10.0 mi ENE 5.8 mph - N/A   Clear
6:14 PM 77.7 °F 64.0 °F 63% 29.92 in 10.0 mi NNE 4.6 mph - N/A   Clear
6:34 PM 76.3 °F 64.4 °F 67% 29.92 in 10.0 mi NE 5.8 mph - N/A   Clear
6:54 PM 77.4 °F 63.5 °F 62% 29.92 in 10.0 mi NE 3.5 mph - N/A   Scattered Clouds
7:14 PM 76.6 °F 64.0 °F 65% 29.92 in 10.0 mi ENE 4.6 mph - N/A   Mostly Cloudy
7:34 PM 76.6 °F 63.7 °F 64% 29.91 in 10.0 mi NE 4.6 mph - N/A   Scattered Clouds
7:54 PM 75.7 °F 64.0 °F 67% 29.91 in 10.0 mi NE 3.5 mph - N/A   Scattered Clouds
8:15 PM 74.1 °F 64.9 °F 73% 29.92 in 10.0 mi NNE 4.6 mph - N/A   Scattered Clouds
8:34 PM 72.7 °F 65.3 °F 78% 29.92 in 10.0 mi North 3.5 mph - N/A   Scattered Clouds
8:54 PM 71.6 °F 64.8 °F 79% 29.92 in 10.0 mi North 3.5 mph - N/A   Clear
9:14 PM 70.9 °F 64.9 °F 81% 29.93 in 10.0 mi NNW 3.5 mph - N/A   Scattered Clouds
9:34 PM 70.5 °F 64.6 °F 81% 29.94 in 10.0 mi North 3.5 mph - N/A   Scattered Clouds
9:54 PM 69.3 °F 64.8 °F 86% 29.95 in 10.0 mi Calm Calm - N/A   Scattered Clouds
10:14 PM 69.6 °F 64.8 °F 84% 29.95 in 10.0 mi Calm Calm - N/A   Scattered Clouds
10:34 PM 70.0 °F 65.7 °F 86% 29.95 in 10.0 mi Calm Calm - N/A   Scattered Clouds
10:54 PM 68.9 °F 64.4 °F 86% 29.95 in 10.0 mi Calm Calm - N/A   Scattered Clouds
11:14 PM 68.2 °F 63.9 °F 86% 29.95 in 10.0 mi Calm Calm - N/A   Clear
11:35 PM 67.3 °F 64.0 °F 89% 29.94 in 10.0 mi Calm Calm - N/A   Clear
11:54 PM 67.1 °F 64.4 °F 91% 29.94 in 10.0 mi Calm Calm - N/A   Clear